Wind_Speed
33 33 33 33 33 33 34 35 36 36 36 38 40 41 43 44 45 46 46 47 48 48 49 50 50 51 51 51 52 52 52 51 50 49 47 46 43 41 40 38 37 36
32 32 32 32 32 33 34 35 36 36 37 39 40 42 43 44 45 46 46 47 48 48 49 49 50 50 51 51 52 52 51 50 49 47 45 43 40 38 37 36 36 36
31 31 31 32 33 34 34 35 36 37 38 40 41 43 44 44 45 46 46 47 48 48 49 49 50 51 51 52 52 51 50 48 47 44 41 39 37 36 35 35 35 36
30 31 31 32 33 34 35 35 36 37 39 40 42 43 43 44 45 46 46 47 48 48 49 50 50 51 51 51 51 50 48 46 44 41 37 35 34 33 34 34 34 36
30 31 31 32 33 34 35 36 37 38 40 41 43 43 43 44 45 45 46 47 48 48 49 50 50 51 51 50 49 48 46 44 41 38 34 32 32 33 33 34 34 35
30 31 32 33 34 34 35 36 37 39 41 42 43 43 43 44 45 46 47 47 48 49 49 50 50 50 50 49 48 46 44 41 37 34 32 31 32 32 33 34 35 36
31 31 32 33 34 34 35 36 38 40 42 42 43 43 44 45 45 46 47 48 48 49 49 49 49 49 49 48 47 44 41 37 34 31 31 32 31 32 33 34 34 35
31 32 33 33 34 35 36 38 40 41 42 42 43 44 44 45 46 47 48 48 48 49 48 48 48 49 48 47 46 42 37 33 31 31 31 32 31 31 32 33 34 35
31 32 33 33 34 36 37 40 41 42 42 42 43 44 45 46 47 47 48 48 48 49 48 47 47 47 47 46 44 39 33 30 30 31 32 31 31 32 32 33 34 35
31 32 33 34 35 37 39 40 41 41 42 42 43 44 45 46 46 47 47 48 48 48 47 46 46 46 45 43 40 36 31 30 31 32 32 31 31 32 33 33 34 35
31 32 33 35 36 38 40 40 41 41 42 42 43 43 44 45 45 46 47 47 47 47 46 45 45 43 42 39 36 33 31 32 33 32 32 31 32 32 33 33 34 35
31 32 34 36 38 40 40 40 41 42 42 42 42 43 43 44 44 45 46 46 46 46 45 44 42 40 37 35 34 33 33 34 34 33 32 32 32 33 33 33 34 35
32 33 35 38 39 40 40 40 41 41 42 42 42 43 43 43 44 44 45 46 46 45 44 42 39 35 33 34 33 34 34 35 34 33 33 33 33 33 33 33 34 35
33 35 37 39 40 40 40 41 41 41 41 42 42 42 42 42 43 44 44 45 44 43 42 39 35 32 32 34 34 35 36 36 35 34 34 34 34 34 34 34 34 35
34 37 39 40 40 40 40 41 41 41 41 41 41 41 41 42 43 43 44 44 43 41 38 34 31 31 32 34 35 36 36 36 36 35 35 35 35 35 35 35 35 35
36 38 39 39 40 40 41 41 41 41 41 41 40 40 41 41 42 43 43 43 41 37 33 31 30 31 34 35 36 37 37 38 37 36 36 36 36 36 35 35 34 35
37 38 38 39 40 40 40 40 40 40 40 40 40 40 40 41 41 42 42 40 37 33 30 29 30 32 34 36 36 37 38 39 39 38 37 37 36 35 35 35 36 37
37 37 38 39 40 40 40 40 39 40 39 39 39 39 40 40 40 40 39 37 33 29 29 30 31 33 35 36 36 38 39 41 41 41 40 40 39 38 38 38 40 41
37 37 38 39 40 40 39 39 39 39 39 38 39 39 40 40 40 39 36 32 30 28 29 30 31 33 35 36 37 38 40 42 42 42 42 41 40 40 41 42 43 44
37 38 39 39 40 40 39 39 39 38 38 38 39 39 39 39 39 36 33 29 28 29 30 30 31 33 35 36 38 39 41 43 42 42 42 41 41 41 42 43 44 44
37 39 39 40 40 39 39 39 38 38 38 39 39 39 39 39 37 34 30 28 28 30 30 30 29 32 35 37 38 40 42 43 42 42 42 41 41 42 42 43 43 42
38 39 40 40 39 39 38 38 37 37 38 39 39 39 39 38 35 31 28 28 29 30 31 29 28 31 35 37 39 41 43 43 43 42 42 42 42 42 41 41 40 40
39 39 40 39 39 38 38 37 37 37 38 39 39 38 37 36 33 29 28 29 29 30 30 29 28 31 35 37 39 41 43 43 43 42 42 43 43 41 40 39 38 37
39 40 39 39 39 38 37 37 36 37 38 39 39 38 36 33 30 28 28 29 30 29 30 30 29 31 35 37 38 39 42 43 43 43 43 43 43 41 39 38 36 35
39 39 39 39 38 37 37 36 36 38 39 39 39 37 34 30 28 28 28 28 29 29 30 31 32 31 34 37 38 39 41 43 44 44 45 44 43 41 39 37 35 33
39 39 39 38 37 37 36 36 37 39 39 39 38 35 32 29 28 29 29 28 28 29 30 32 33 33 33 35 38 39 41 43 44 45 44 44 43 40 38 35 34 32
Wind_Direction
276 279 282 284 287 290 292 294 296 298 298 299 300 302 305 309 311 312 312 312 312 313 314 314 315 315 316 316 317 317 317 317 317 317 316 315 314 313 312 312 312 312
277 280 283 286 288 291 293 295 296 297 297 299 301 304 307 310 311 311 311 312 312 313 314 314 315 315 316 317 317 317 317 317 317 317 316 314 313 312 311 311 311 311
278 281 284 286 289 291 293 294 295 296 298 300 304 306 308 309 310 310 311 312 312 313 313 314 315 316 316 317 317 317 317 317 316 315 314 313 312 311 310 310 310 310
278 281 284 286 289 291 292 293 294 296 299 302 305 307 309 309 310 310 311 312 312 313 314 315 316 316 316 316 316 316 316 316 315 314 312 311 309 309 309 309 309 310
279 281 284 287 289 290 291 292 294 298 301 304 306 308 308 309 310 310 311 312 313 314 315 315 316 316 316 316 316 316 315 314 313 311 310 308 308 308 309 310 310 310
279 282 284 286 288 289 290 293 297 301 303 306 307 308 308 309 310 311 312 313 313 314 315 315 315 315 315 315 315 315 314 313 311 309 308 308 309 310 310 311 311 310
280 282 285 287 288 290 292 296 300 303 305 306 307 308 309 310 311 312 313 313 314 314 315 315 315 314 314 314 314 313 312 311 309 307 308 309 310 310 311 311 310 310
281 283 285 287 289 292 296 299 302 304 305 306 307 308 310 311 312 313 313 313 313 314 314 314 314 313 313 313 313 312 311 309 307 306 308 309 310 310 310 310 310 309
282 284 286 289 291 295 298 301 303 304 305 306 307 309 311 311 312 312 312 312 312 312 313 314 314 313 313 312 311 310 309 307 306 306 308 308 309 309 310 310 309 309
282 285 287 290 292 295 298 301 302 303 304 305 308 310 310 311 311 310 310 310 310 311 313 314 314 313 312 310 309 308 307 306 305 307 308 308 308 310 310 310 310 309
283 285 287 290 293 296 299 300 301 302 304 306 308 309 309 309 309 309 309 309 310 312 313 314 313 312 310 307 306 306 306 306 306 307 308 308 309 310 311 311 310 309
283 286 288 291 294 297 299 300 300 302 305 307 308 308 308 308 308 308 309 310 311 313 313 313 312 310 307 305 304 305 306 305 306 307 307 308 310 311 313 312 310 308
284 287 290 292 295 297 298 299 300 303 305 306 307 307 308 308 308 309 309 310 312 312 313 312 310 307 304 303 303 305 304 304 304 306 307 309 311 313 313 312 309 308
286 289 291 293 295 296 297 298 301 303 305 306 307 307 308 308 308 309 309 310 311 312 311 309 307 304 302 302 303 304 303 302 304 306 308 311 313 314 313 312 311 311
287 289 291 293 294 295 297 299 302 304 306 306 307 307 307 308 308 308 309 310 311 311 309 306 304 303 302 303 303 303 302 302 304 308 311 313 314 314 314 313 312 313
287 289 290 292 293 295 298 301 303 305 305 306 307 307 307 308 308 308 309 310 310 308 305 303 303 304 304 304 304 303 302 303 305 309 311 312 313 313 313 313 313 313
287 288 289 291 293 296 299 302 304 305 305 306 307 307 307 307 307 308 309 309 308 305 303 303 305 305 304 304 304 303 303 304 306 310 312 313 313 313 314 315 315 314
287 288 290 292 295 298 301 303 304 305 306 306 307 307 307 306 307 309 308 307 304 303 303 304 306 305 304 303 303 304 305 306 309 312 314 314 316 317 318 318 317 317
287 289 291 294 297 300 302 304 305 305 306 306 306 306 306 307 308 309 307 305 303 303 304 305 306 305 303 303 304 305 307 307 310 312 314 315 317 318 319 319 319 319
289 291 294 297 299 301 303 304 304 305 306 306 306 306 306 308 309 308 306 304 303 304 304 305 305 304 303 304 305 306 307 307 310 312 312 314 316 317 318 318 319 319
291 293 296 298 300 302 303 303 303 305 305 305 305 306 307 309 308 306 304 303 303 303 303 304 305 304 303 304 305 306 306 307 309 311 311 313 314 315 316 317 318 317
292 294 297 299 300 302 302 302 303 304 304 304 305 307 309 308 306 303 302 302 302 302 301 303 304 304 304 304 305 306 306 307 308 309 310 312 313 314 316 316 317 316
294 296 297 299 300 301 301 301 303 304 304 304 306 308 308 306 302 301 302 301 301 301 301 303 305 305 304 304 305 306 305 306 307 308 310 311 313 315 316 316 317 317
294 296 298 299 300 300 300 301 303 304 304 305 307 308 306 302 299 299 301 301 301 301 301 303 305 304 303 303 304 305 305 305 307 309 311 312 313 315 317 318 319 319
295 296 298 298 299 299 300 303 304 304 304 306 307 306 302 299 298 299 300 301 301 301 302 303 304 304 303 303 304 305 305 306 308 310 312 313 314 317 319 320 320 320
295 297 298 298 299 300 302 304 304 304 305 306 306 304 299 298 299 299 299 300 301 302 303 304 304 304 304 304 304 305 306 307 309 310 312 313 315 318 320 321 320 319
Height
3080 3079 3079 3078 3078 3077 3076 3075 3074 3073 3072 3071 3069 3067 3065 3063 3061 3059 3057 3055 3053 3050 3047 3045 3042 3039 3037 3034 3031 3028 3025 3022 3019 3016 3013 3010 3008 3005 3002 3000 2998 2996
3076 3075 3075 3075 3074 3073 3073 3071 3070 3069 3068 3067 3065 3063 3061 3059 3057 3055 3053 3050 3048 3045 3043 3040 3038 3035 3032 3029 3026 3023 3020 3017 3014 3011 3008 3006 3003 3001 2999 2997 2994 2993
3072 3072 3071 3071 3070 3070 3069 3068 3067 3065 3064 3063 3061 3059 3057 3055 3053 3051 3048 3046 3043 3040 3038 3035 3032 3029 3026 3023 3021 3018 3015 3012 3009 3007 3004 3001 2999 2997 2995 2994 2992 2989
3069 3068 3068 3067 3067 3066 3065 3064 3063 3062 3060 3058 3056 3055 3053 3051 3048 3046 3043 3041 3038 3035 3032 3030 3027 3024 3021 3019 3016 3013 3010 3007 3005 3003 3000 2998 2996 2994 2992 2991 2989 2986
3065 3065 3064 3064 3063 3062 3061 3060 3059 3058 3056 3054 3052 3050 3048 3046 3044 3041 3039 3036 3033 3030 3027 3025 3022 3019 3016 3014 3011 3008 3005 3003 3000 2998 2997 2995 2993 2991 2989 2987 2985 2983
3061 3061 3061 3060 3059 3059 3058 3056 3055 3053 3051 3049 3047 3045 3043 3041 3039 3036 3033 3030 3028 3025 3023 3020 3017 3014 3011 3009 3006 3003 3001 2998 2996 2994 2993 2991 2990 2988 2986 2984 2982 2980
3058 3057 3057 3056 3055 3054 3053 3052 3050 3049 3047 3045 3043 3041 3038 3036 3033 3030 3027 3025 3022 3020 3018 3015 3012 3009 3007 3004 3001 2999 2997 2994 2992 2991 2989 2988 2986 2985 2983 2981 2979 2977
3054 3053 3053 3052 3051 3050 3049 3047 3046 3044 3042 3040 3038 3036 3033 3030 3028 3025 3022 3019 3017 3015 3013 3011 3008 3005 3002 2999 2996 2994 2992 2991 2989 2987 2986 2985 2983 2982 2980 2978 2976 2974
3050 3049 3049 3048 3047 3045 3044 3043 3041 3039 3038 3036 3034 3031 3028 3025 3023 3020 3017 3015 3013 3011 3008 3006 3003 3000 2997 2994 2991 2990 2988 2987 2985 2984 2983 2981 2980 2979 2977 2975 2973 2970
3046 3045 3045 3043 3043 3041 3040 3039 3037 3036 3034 3032 3030 3027 3024 3021 3018 3016 3013 3011 3009 3006 3004 3001 2998 2995 2992 2989 2986 2985 2984 2983 2982 2981 2979 2978 2977 2975 2973 2971 2969 2967
3042 3042 3041 3040 3039 3037 3036 3035 3033 3031 3030 3027 3025 3023 3020 3017 3014 3012 3009 3006 3004 3001 2999 2996 2993 2990 2987 2984 2982 2981 2980 2979 2978 2977 2976 2975 2974 2972 2970 2968 2965 2963
3039 3038 3037 3035 3034 3033 3032 3030 3029 3027 3025 3023 3021 3018 3016 3013 3010 3007 3004 3002 2999 2996 2994 2991 2988 2986 2983 2980 2978 2977 2976 2975 2974 2973 2972 2971 2970 2968 2966 2964 2961 2959
3035 3034 3032 3031 3030 3029 3028 3026 3024 3023 3021 3019 3016 3014 3011 3008 3005 3003 3000 2997 2994 2991 2989 2986 2984 2981 2979 2976 2975 2974 2973 2971 2970 2970 2969 2968 2966 2965 2963 2960 2958 2955
3030 3029 3028 3027 3026 3025 3023 3022 3020 3018 3016 3014 3011 3009 3006 3003 3000 2998 2995 2992 2990 2987 2984 2982 2980 2978 2975 2973 2971 2970 2969 2967 2966 2966 2965 2964 2962 2961 2959 2956 2954 2952
3026 3025 3024 3023 3021 3020 3019 3017 3015 3013 3011 3009 3006 3004 3001 2998 2996 2993 2991 2988 2985 2983 2980 2978 2976 2974 2971 2969 2968 2966 2964 2963 2962 2961 2960 2959 2957 2956 2954 2952 2950 2948
3022 3021 3020 3018 3017 3015 3014 3012 3011 3008 3006 3004 3001 2999 2996 2994 2991 2988 2986 2983 2981 2979 2976 2974 2973 2970 2968 2966 2964 2962 2959 2958 2957 2958 2957 2955 2954 2952 2950 2948 2947 2944
3018 3017 3016 3014 3012 3011 3009 3008 3006 3003 3001 2999 2997 2994 2992 2989 2987 2984 2981 2979 2976 2975 2973 2971 2969 2967 2964 2962 2960 2957 2955 2953 2952 2952 2952 2951 2949 2947 2946 2944 2942 2939
3014 3012 3011 3009 3008 3006 3005 3003 3001 2998 2996 2994 2992 2989 2987 2984 2982 2979 2977 2974 2972 2971 2969 2967 2965 2963 2960 2958 2956 2953 2951 2948 2947 2946 2945 2944 2943 2941 2939 2937 2935 2932
3009 3007 3006 3004 3003 3001 2999 2997 2995 2993 2991 2989 2987 2985 2982 2980 2977 2975 2972 2970 2968 2967 2965 2964 2962 2959 2956 2954 2952 2950 2947 2945 2943 2942 2940 2939 2937 2936 2933 2931 2928 2924
3004 3002 3001 2999 2998 2996 2994 2992 2991 2989 2987 2985 2982 2980 2977 2975 2972 2970 2968 2966 2964 2963 2962 2960 2958 2955 2953 2950 2948 2945 2943 2941 2940 2939 2937 2935 2933 2931 2929 2926 2922 2919
2999 2997 2996 2994 2993 2991 2990 2988 2986 2984 2982 2979 2977 2975 2972 2970 2968 2965 2964 2962 2961 2960 2958 2957 2955 2952 2949 2946 2944 2941 2939 2937 2936 2935 2933 2931 2930 2928 2925 2922 2918 2915
2994 2993 2991 2990 2988 2986 2985 2983 2981 2980 2977 2974 2972 2970 2968 2965 2963 2961 2960 2959 2957 2956 2954 2953 2952 2949 2945 2943 2940 2937 2934 2932 2932 2930 2929 2927 2925 2924 2921 2918 2914 2911
2989 2988 2986 2985 2983 2982 2980 2979 2977 2975 2972 2969 2967 2965 2963 2961 2959 2958 2956 2955 2954 2952 2950 2949 2948 2946 2942 2939 2937 2934 2930 2928 2927 2926 2924 2922 2920 2919 2916 2913 2910 2906
2984 2983 2981 2980 2978 2977 2975 2974 2972 2969 2967 2964 2962 2960 2959 2957 2955 2954 2953 2951 2950 2948 2946 2945 2944 2943 2939 2935 2933 2931 2927 2923 2922 2920 2918 2916 2914 2912 2911 2907 2904 2901
2980 2978 2977 2975 2974 2972 2970 2969 2967 2964 2961 2959 2957 2955 2954 2952 2951 2950 2949 2948 2946 2944 2943 2940 2939 2939 2936 2932 2929 2927 2923 2919 2917 2914 2912 2909 2907 2906 2904 2902 2899 2896
2974 2973 2972 2970 2968 2967 2965 2963 2961 2958 2956 2955 2953 2951 2949 2948 2947 2946 2945 2944 2942 2940 2939 2937 2934 2933 2932 2929 2925 2923 2920 2916 2912 2909 2906 2903 2901 2900 2898 2896 2894 2891